Location: Blazny
(46.0612°N, 84.4033°W)
Time: 08:56:48
(UTC-04:00)

ARIANE 6 FM1 Upper Stage - Pass Details

Date: 22 September 2024
Orbit: 564 x 594 km, 62.0° (Epoch: 03 October)

Event Time Altitude Azimuth Distance (km) Brightness Sun altitude
Rises 22:27:25 0° 258° (WSW) 2,788 6.8 -29.2°
Reaches altitude 10° 22:30:00 10° 272° (W) 1,898 6.0 -29.6°
Maximum altitude 22:33:30 24° 327° (NNW) 1,229 4.9 -30.1°
Enters shadow 22:35:12 19° 1° (N) 1,419 5.0 -30.3°
